Location: Branche des Alpilles
(43.6087°N, 4.6976°E)
Time: 04:45:54
(UTC+00:00)

Cosmos 923 Rocket - Pass Details

Date: 30 November 2020
Orbit: 757 x 786 km, 74.0° (Epoch: 24 January)

Event Time Altitude Azimuth Distance (km) Brightness Sun altitude
Rises 17:50:38 0° 183° (S) 3,199 7.4 -18.4°
Reaches altitude 10° 17:53:02 10° 179° (S) 2,279 6.6 -18.9°
Maximum altitude 17:58:01 50° 104° (ESE) 962 4.1 -19.7°
Enters shadow 17:59:25 39° 59° (ENE) 1,131 4.4 -20.0°
